When you browse on this site, cookies collect data to enhance your experience and personalize the content and advertising you see.
Visit our Privacy Policy to learn more. By continuing to use the site, you agree to this use of cookies and data.
  • In Czech Republic
  • List of Countries
  • For 7 days
  • Water Temperature
  • Satellite Maps
  • Weather Map
  • Weather Widgets
  • user-avatar
    Login

    Hourly Weather Pshenychne

    Today, 13 December, Thursday

    Time Temperature Precipitation Wind Pressure Humidity
    00:00 -2°C° 0 mm 5 mps 758 mmHg 79%
    01:00 -2°C° 0 mm 5 mps 758 mmHg 79%
    02:00 -2°C° 0 mm 4 mps 757 mmHg 80%
    03:00 -2°C° 0.1 mm 5 mps 757 mmHg 79%
    04:00 -2°C° 0.1 mm 5 mps 757 mmHg 79%
    05:00 -3°C° 0.1 mm 6 mps 757 mmHg 78%
    06:00 -3°C° 0.1 mm 6 mps 757 mmHg 77%
    07:00 -3°C° 0.1 mm 6 mps 757 mmHg 77%
    08:00 -3°C° 0.1 mm 6 mps 757 mmHg 76%
    09:00 -2°C° 0.1 mm 6 mps 757 mmHg 74%
    10:00 -1°C° 0.1 mm 7 mps 758 mmHg 73%
    11:00 -1°C° 0.1 mm 7 mps 758 mmHg 71%
    12:00 -1°C° 0.1 mm 7 mps 758 mmHg 70%
    13:00 0°C° 0.1 mm 7 mps 758 mmHg 69%
    14:00 +1°C° 0.1 mm 6 mps 758 mmHg 68%
    15:00 -1°C° 0 mm 6 mps 758 mmHg 70%
    16:00 0°C° 0 mm 5 mps 758 mmHg 72%
    17:00 -1°C° 0 mm 5 mps 759 mmHg 74%
    18:00 -1°C° 0.1 mm 4 mps 759 mmHg 74%
    19:00 -1°C° 0.1 mm 4 mps 759 mmHg 75%
    20:00 -1°C° 0.1 mm 4 mps 759 mmHg 75%
    21:00 -2°C° 0 mm 4 mps 759 mmHg 77%
    22:00 -2°C° 0 mm 4 mps 759 mmHg 79%
    23:00 -2°C° 0 mm 4 mps 760 mmHg 81%

    Tomorrow, 14 December, Friday

    Time Temperature Precipitation Wind Pressure Humidity
    00:00 -2°C° 0 mm 4 mps 760 mmHg 83%
    01:00 -1°C° 0 mm 3 mps 760 mmHg 86%
    02:00 -2°C° 0 mm 3 mps 760 mmHg 88%
    03:00 -2°C° 0 mm 3 mps 761 mmHg 89%
    04:00 -2°C° 0 mm 3 mps 761 mmHg 90%
    05:00 -2°C° 0 mm 3 mps 761 mmHg 90%
    06:00 -2°C° 0 mm 3 mps 761 mmHg 90%
    07:00 -2°C° 0 mm 3 mps 762 mmHg 90%
    08:00 -2°C° 0 mm 3 mps 762 mmHg 90%
    09:00 -1°C° 0 mm 3 mps 762 mmHg 85%
    10:00 0°C° 0 mm 3 mps 763 mmHg 79%
    11:00 +1°C° 0 mm 3 mps 763 mmHg 73%
    12:00 +1°C° 0 mm 3 mps 763 mmHg 71%
    13:00 +2°C° 0 mm 3 mps 763 mmHg 70%
    14:00 +2°C° 0 mm 3 mps 763 mmHg 68%
    15:00 +1°C° 0 mm 3 mps 764 mmHg 73%
    16:00 +1°C° 0 mm 2 mps 764 mmHg 78%
    17:00 -1°C° 0 mm 2 mps 764 mmHg 83%
    18:00 -1°C° 0 mm 2 mps 764 mmHg 84%
    19:00 0°C° 0 mm 1 mps 765 mmHg 85%
    20:00 0°C° 0 mm 1 mps 765 mmHg 87%
    21:00 0°C° 0 mm 1 mps 765 mmHg 87%
    22:00 0°C° 0 mm 1 mps 766 mmHg 87%
    23:00 0°C° 0 mm 1 mps 766 mmHg 87%

    Day after tomorrow, 15 December, Saturday

    Time Temperature Precipitation Wind Pressure Humidity
    00:00 0°C° 0 mm 1 mps 766 mmHg 86%
    01:00 0°C° 0 mm 1 mps 766 mmHg 86%
    02:00 0°C° 0 mm 1 mps 766 mmHg 86%
    03:00 -2°C° 0 mm 2 mps 766 mmHg 85%
    04:00 -2°C° 0 mm 2 mps 766 mmHg 84%
    05:00 -2°C° 0 mm 2 mps 766 mmHg 83%
    06:00 -2°C° 0 mm 3 mps 766 mmHg 82%
    07:00 -1°C° 0 mm 3 mps 766 mmHg 82%
    08:00 -2°C° 0 mm 4 mps 766 mmHg 81%
    09:00 -1°C° 0.1 mm 4 mps 766 mmHg 81%
    10:00 -1°C° 0.1 mm 5 mps 766 mmHg 81%
    11:00 0°C° 0.1 mm 5 mps 766 mmHg 81%
    12:00 -1°C° 0.3 mm 6 mps 766 mmHg 82%
    13:00 -1°C° 0.3 mm 6 mps 765 mmHg 83%
    14:00 -1°C° 0.3 mm 6 mps 765 mmHg 84%
    15:00 -1°C° 0.3 mm 6 mps 765 mmHg 85%
    16:00 -1°C° 0.3 mm 6 mps 764 mmHg 87%
    17:00 -1°C° 0.3 mm 7 mps 764 mmHg 88%
    18:00 0°C° 0.4 mm 7 mps 764 mmHg 88%
    19:00 0°C° 0.4 mm 7 mps 764 mmHg 89%
    20:00 0°C° 0.4 mm 7 mps 764 mmHg 89%
    21:00 +2°C° 0.3 mm 7 mps 763 mmHg 90%
    22:00 +2°C° 0.3 mm 7 mps 763 mmHg 90%
    23:00 +3°C° 0.3 mm 7 mps 763 mmHg 91%

    16 December, Sunday

    Time Temperature Precipitation Wind Pressure Humidity
    00:00 +2°C° 0.7 mm 8 mps 762 mmHg 91%
    01:00 +4°C° 0.7 mm 8 mps 762 mmHg 91%
    02:00 +4°C° 0.7 mm 8 mps 762 mmHg 91%
    03:00 +4°C° 0.7 mm 8 mps 762 mmHg 91%
    04:00 +4°C° 0.7 mm 8 mps 761 mmHg 92%
    05:00 +4°C° 0.7 mm 8 mps 761 mmHg 92%
    06:00 +5°C° 0.2 mm 8 mps 761 mmHg 92%
    07:00 +5°C° 0.2 mm 8 mps 761 mmHg 91%
    08:00 +5°C° 0.2 mm 8 mps 761 mmHg 91%
    09:00 +5°C° 0.1 mm 8 mps 761 mmHg 89%
    10:00 +5°C° 0.1 mm 8 mps 761 mmHg 87%
    11:00 +5°C° 0.1 mm 8 mps 761 mmHg 85%
    12:00 +5°C° 0.1 mm 8 mps 761 mmHg 81%
    13:00 +5°C° 0.1 mm 8 mps 761 mmHg 77%
    14:00 +6°C° 0.1 mm 8 mps 761 mmHg 74%
    15:00 +5°C° 0 mm 8 mps 761 mmHg 74%
    16:00 +4°C° 0 mm 8 mps 761 mmHg 74%
    17:00 +3°C° 0 mm 7 mps 761 mmHg 74%
    18:00 +3°C° 0 mm 7 mps 761 mmHg 75%
    19:00 +3°C° 0 mm 7 mps 761 mmHg 76%
    20:00 +3°C° 0 mm 7 mps 761 mmHg 76%
    21:00 +2°C° 0 mm 7 mps 762 mmHg 78%
    22:00 +2°C° 0 mm 6 mps 762 mmHg 79%
    23:00 +2°C° 0 mm 6 mps 762 mmHg 81%

    17 December, Monday

    Time Temperature Precipitation Wind Pressure Humidity
    00:00 +2°C° 0 mm 6 mps 762 mmHg 82%
    01:00 +1°C° 0 mm 6 mps 762 mmHg 83%
    02:00 +1°C° 0 mm 6 mps 762 mmHg 84%
    03:00 +1°C° 0 mm 6 mps 762 mmHg 85%
    04:00 -1°C° 0 mm 6 mps 762 mmHg 86%
    05:00 -1°C° 0 mm 6 mps 761 mmHg 87%
    06:00 -1°C° 0 mm 6 mps 762 mmHg 87%
    07:00 -1°C° 0 mm 6 mps 762 mmHg 86%
    08:00 -1°C° 0 mm 6 mps 762 mmHg 86%
    09:00 0°C° 0.1 mm 5 mps 762 mmHg 84%
    10:00 0°C° 0.1 mm 5 mps 762 mmHg 83%
    11:00 0°C° 0.1 mm 5 mps 762 mmHg 82%
    12:00 0°C° 0.1 mm 5 mps 762 mmHg 81%
    13:00 0°C° 0.1 mm 5 mps 762 mmHg 80%
    14:00 0°C° 0.1 mm 5 mps 762 mmHg 79%
    15:00 0°C° 0 mm 5 mps 762 mmHg 79%
    16:00 0°C° 0 mm 5 mps 762 mmHg 80%
    17:00 0°C° 0 mm 4 mps 762 mmHg 81%
    18:00 0°C° 0.1 mm 4 mps 762 mmHg 82%
    19:00 -1°C° 0.1 mm 4 mps 763 mmHg 82%
    20:00 -1°C° 0.1 mm 4 mps 763 mmHg 83%
    21:00 -1°C° 0.1 mm 4 mps 763 mmHg 83%
    22:00 -1°C° 0.1 mm 4 mps 763 mmHg 84%
    23:00 -1°C° 0.1 mm 4 mps 763 mmHg 84%

    18 December, Tuesday

    Time Temperature Precipitation Wind Pressure Humidity
    00:00 -1°C° 0 mm 4 mps 763 mmHg 84%
    01:00 -1°C° 0 mm 4 mps 763 mmHg 84%
    02:00 -2°C° 0 mm 4 mps 763 mmHg 85%
    03:00 -2°C° 0 mm 4 mps 763 mmHg 85%
    04:00 -2°C° 0 mm 4 mps 763 mmHg 85%
    05:00 -2°C° 0 mm 4 mps 763 mmHg 85%
    06:00 -2°C° 0 mm 4 mps 763 mmHg 85%
    07:00 -1°C° 0 mm 3 mps 763 mmHg 86%
    08:00 -1°C° 0 mm 3 mps 763 mmHg 86%
    09:00 -1°C° 0.1 mm 3 mps 763 mmHg 86%
    10:00 0°C° 0.1 mm 3 mps 763 mmHg 85%
    11:00 0°C° 0.1 mm 3 mps 763 mmHg 85%
    12:00 0°C° 0.1 mm 3 mps 763 mmHg 84%
    13:00 0°C° 0.1 mm 3 mps 763 mmHg 84%
    14:00 0°C° 0.1 mm 3 mps 763 mmHg 83%
    15:00 0°C° 0.1 mm 3 mps 763 mmHg 85%
    16:00 0°C° 0.1 mm 3 mps 763 mmHg 86%
    17:00 0°C° 0.1 mm 3 mps 763 mmHg 87%
    18:00 0°C° 0.2 mm 3 mps 763 mmHg 88%
    19:00 0°C° 0.2 mm 3 mps 763 mmHg 89%
    20:00 -1°C° 0.2 mm 3 mps 763 mmHg 90%
    21:00 -1°C° 0.1 mm 3 mps 763 mmHg 91%
    22:00 -1°C° 0.1 mm 2 mps 763 mmHg 92%
    23:00 -1°C° 0.1 mm 2 mps 763 mmHg 92%
    Show more